TimeEDT,TemperatureF,Dew PointF,Humidity,Sea Level PressureIn,VisibilityMPH,Wind Direction,Wind SpeedMPH,Gust SpeedMPH,PrecipitationIn,Events,Conditions,WindDirDegrees,DateUTC
12:19 AM,66.2,64.4,94,30.05,10.0,North,4.6,-,N/A,,Overcast,10,2013-10-13 04:19:00
12:54 AM,68.0,64.9,90,30.05,10.0,NNW,4.6,-,N/A,,Overcast,330,2013-10-13 04:54:00
1:08 AM,66.2,64.4,94,30.05,10.0,NNW,5.8,-,N/A,,Overcast,340,2013-10-13 05:08:00
1:54 AM,68.0,66.0,93,30.05,10.0,North,6.9,-,N/A,,Overcast,350,2013-10-13 05:54:00
2:16 AM,68.0,66.2,94,30.06,10.0,North,6.9,-,N/A,,Overcast,360,2013-10-13 06:16:00
2:31 AM,68.0,66.2,94,30.05,10.0,North,8.1,-,N/A,,Overcast,350,2013-10-13 06:31:00
2:54 AM,66.9,66.0,97,30.05,10.0,North,8.1,-,N/A,,Overcast,350,2013-10-13 06:54:00
3:18 AM,66.2,66.2,100,30.05,7.0,North,6.9,-,N/A,,Overcast,350,2013-10-13 07:18:00
3:54 AM,66.9,66.0,97,30.05,6.0,North,8.1,-,N/A,,Overcast,350,2013-10-13 07:54:00
4:20 AM,66.2,66.2,100,30.05,2.5,NNW,8.1,-,N/A,,Overcast,340,2013-10-13 08:20:00
4:45 AM,66.2,66.2,100,30.05,4.0,NNW,9.2,-,N/A,,Overcast,340,2013-10-13 08:45:00
4:54 AM,66.9,66.0,97,30.05,4.0,North,8.1,-,N/A,,Overcast,350,2013-10-13 08:54:00
5:54 AM,66.9,66.0,97,30.06,6.0,NNW,9.2,-,N/A,,Overcast,330,2013-10-13 09:54:00
6:54 AM,66.9,66.0,97,30.08,2.5,NNW,8.1,-,N/A,,Overcast,330,2013-10-13 10:54:00
7:07 AM,66.2,66.2,100,30.08,4.0,NNW,8.1,-,N/A,,Overcast,330,2013-10-13 11:07:00
7:50 AM,68.0,66.2,94,30.08,2.0,NNW,9.2,-,N/A,,Overcast,340,2013-10-13 11:50:00
7:54 AM,68.0,66.9,96,30.09,2.5,NNW,9.2,-,N/A,,Overcast,340,2013-10-13 11:54:00
8:22 AM,68.0,66.2,94,30.09,1.8,North,9.2,-,0.00,,Overcast,350,2013-10-13 12:22:00
8:33 AM,69.8,68.0,94,30.09,2.5,North,10.4,-,0.00,,Overcast,350,2013-10-13 12:33:00
8:43 AM,69.8,68.0,94,30.10,3.0,North,8.1,-,0.00,,Overcast,360,2013-10-13 12:43:00
8:54 AM,69.1,68.0,96,30.10,4.0,North,6.9,-,0.00,,Overcast,360,2013-10-13 12:54:00
9:09 AM,69.8,68.0,94,30.11,2.0,North,8.1,-,N/A,,Overcast,360,2013-10-13 13:09:00
9:21 AM,69.8,69.8,100,30.11,4.0,North,9.2,-,N/A,,Overcast,360,2013-10-13 13:21:00
9:54 AM,71.1,69.1,93,30.12,4.0,North,6.9,-,0.00,,Overcast,10,2013-10-13 13:54:00
10:02 AM,71.6,69.8,94,30.12,9.0,North,6.9,-,N/A,,Overcast,10,2013-10-13 14:02:00
10:11 AM,71.6,69.8,94,30.12,10.0,NNE,8.1,-,N/A,,Overcast,20,2013-10-13 14:11:00
10:25 AM,73.4,69.8,88,30.12,10.0,NE,8.1,-,N/A,,Overcast,40,2013-10-13 14:25:00
10:54 AM,73.9,70.0,87,30.13,10.0,NE,9.2,-,N/A,,Mostly Cloudy,40,2013-10-13 14:54:00
11:01 AM,75.2,69.8,83,30.13,10.0,NE,8.1,-,N/A,,Mostly Cloudy,40,2013-10-13 15:01:00
11:37 AM,75.2,69.8,83,30.13,10.0,ENE,12.7,-,0.00,,Overcast,70,2013-10-13 15:37:00
11:54 AM,75.0,70.0,84,30.13,10.0,ENE,12.7,-,0.00,,Mostly Cloudy,60,2013-10-13 15:54:00
12:54 PM,75.9,69.1,79,30.12,10.0,ENE,16.1,-,N/A,,Mostly Cloudy,60,2013-10-13 16:54:00
1:54 PM,75.0,69.1,82,30.12,10.0,NE,13.8,-,N/A,,Overcast,50,2013-10-13 17:54:00
2:54 PM,73.0,68.0,84,30.11,9.0,NE,18.4,23.0,N/A,,Overcast,40,2013-10-13 18:54:00
3:36 PM,71.6,68.0,88,30.10,8.0,NE,16.1,26.5,N/A,,Overcast,40,2013-10-13 19:36:00
3:54 PM,72.0,68.0,87,30.10,9.0,NE,18.4,25.3,N/A,,Overcast,40,2013-10-13 19:54:00
4:54 PM,72.0,66.9,84,30.11,8.0,NE,19.6,-,N/A,,Overcast,50,2013-10-13 20:54:00
5:54 PM,70.0,66.9,90,30.12,6.0,NE,17.3,26.5,N/A,,Overcast,40,2013-10-13 21:54:00
6:54 PM,69.1,66.9,93,30.13,6.0,NE,18.4,23.0,0.00,Rain,Light Rain,40,2013-10-13 22:54:00
7:54 PM,69.1,66.9,93,30.14,8.0,NE,16.1,26.5,0.01,,Overcast,40,2013-10-13 23:54:00
8:54 PM,69.1,66.0,90,30.15,6.0,NNE,18.4,27.6,0.00,Rain,Light Rain,30,2013-10-14 00:54:00
9:54 PM,68.0,66.0,93,30.17,7.0,NNE,16.1,25.3,0.00,,Overcast,30,2013-10-14 01:54:00
10:54 PM,69.1,64.9,87,30.17,9.0,NNE,18.4,26.5,N/A,,Overcast,30,2013-10-14 02:54:00
11:50 PM,69.8,64.4,83,30.16,10.0,NNE,15.0,23.0,N/A,,Overcast,30,2013-10-14 03:50:00
11:54 PM,69.1,64.9,87,30.17,10.0,NNE,18.4,24.2,N/A,,Overcast,30,2013-10-14 03:54:00